Date String (YYYY-MM-DD hh:mm:ss) UTC,Instrument flags,Ambient pressure (hPa),Sample flow (lpm),Bypass flow (lpm),Sample temperature (°C),Ambient temperature (°C),ASC tube jacket temperature (°C),LED temperature (°C),Box temperature (°C),Sample RH (%),Span deviation,Mass concentration (μg/m³),Mass concentration (μg/m³),Mass concentration (μg/m³)
DateTimeUTC,F1_M11,P_M11,Q1_M11,Q2_M11,T1_M11,T2_M11,T3_M11,T4_M11,T5_M11,U1_M11,ZSPAN_M11,X0_M11,X2_M11,X1_M11
2022-08-30 11:00:00,,0832.9,5.02,0.00,30.4,27.5,00.0,39.1,32.1,22.2,0000.0,0019.65,0007.34,0006.13
2022-08-30 11:01:00,,0832.8,4.99,0.00,30.3,27.0,00.0,39.0,32.0,22.2,0000.0,0019.50,0007.37,0006.12
2022-08-30 11:02:00,,0832.8,5.00,0.00,30.2,27.1,00.0,39.0,31.8,22.3,0000.0,0019.77,0007.36,0006.13
2022-08-30 11:03:00,,0832.8,5.00,0.00,30.1,27.4,00.0,38.9,31.7,22.4,0000.0,0020.21,0007.36,0006.14
2022-08-30 11:04:00,,0832.9,5.00,0.00,30.1,27.7,00.0,38.9,31.7,22.4,0000.0,0019.76,0007.34,0006.13
2022-08-30 11:05:00,,0832.9,5.01,0.00,30.0,27.9,00.0,38.9,31.7,22.5,0000.0,0018.99,0007.31,0006.12
2022-08-30 11:06:00,,0833.0,5.00,0.00,30.0,28.1,00.0,38.9,31.8,22.5,0000.0,0016.50,0007.22,0006.10
2022-08-30 11:07:00,,0833.1,5.00,0.00,30.0,28.3,00.0,38.9,31.8,22.5,0000.0,0016.41,0007.27,0006.10
2022-08-30 11:08:00,,0833.1,5.00,0.00,30.0,28.4,00.0,38.8,31.8,22.5,0000.0,0015.70,0007.27,0006.09
2022-08-30 11:09:00,,0833.0,5.01,0.00,30.0,28.5,00.0,38.8,31.8,22.5,0000.0,0016.24,0007.27,0006.08
2022-08-30 11:10:00,,0833.1,5.00,0.00,30.0,28.6,00.0,38.8,31.8,22.5,0000.0,0015.99,0007.25,0006.07
2022-08-30 11:11:00,,0833.1,5.00,0.00,30.0,28.7,00.0,38.8,31.9,22.5,0000.0,0016.34,0007.25,0006.05
2022-08-30 11:12:00,,0833.1,4.98,0.00,30.0,28.8,00.0,38.8,31.9,22.6,0000.0,0016.60,0007.20,0006.05
2022-08-30 11:13:00,,0833.1,5.01,0.00,30.0,28.8,00.0,38.9,31.9,22.5,0000.0,0016.82,0007.17,0006.05
2022-08-30 11:14:00,,0833.1,5.01,0.00,30.1,28.9,00.0,38.9,31.9,22.5,0000.0,0016.88,0007.12,0006.04
2022-08-30 11:15:00,,0833.1,5.01,0.00,30.1,28.9,00.0,38.9,31.9,22.5,0000.0,0017.04,0007.13,0006.05
2022-08-30 11:16:00,,0833.1,5.01,0.00,30.1,28.9,00.0,38.9,31.9,22.5,0000.0,0017.63,0007.18,0006.09
2022-08-30 11:17:00,,0833.1,4.99,0.00,30.1,28.9,00.0,38.9,31.9,22.6,0000.0,0018.18,0007.22,0006.10
2022-08-30 11:18:00,,0833.1,5.01,0.00,30.1,28.9,00.0,38.9,31.9,22.6,0000.0,0018.59,0007.23,0006.10
2022-08-30 11:19:00,,0833.2,5.01,0.00,30.1,29.0,00.0,38.9,32.0,22.6,0000.0,0018.64,0007.23,0006.11
2022-08-30 11:20:00,,0833.2,4.99,0.00,30.1,29.0,00.0,38.9,32.0,22.6,0000.0,0017.86,0007.26,0006.12
2022-08-30 11:21:00,,0833.2,5.00,0.00,30.2,29.0,00.0,38.9,32.0,22.5,0000.0,0017.92,0007.32,0006.15
2022-08-30 11:22:00,,0833.2,5.00,0.00,30.2,29.0,00.0,38.9,32.0,22.5,0000.0,0017.70,0007.35,0006.18
2022-08-30 11:23:00,,0833.1,5.01,0.00,30.2,29.1,00.0,38.9,32.0,22.5,0000.0,0017.21,0007.37,0006.19
2022-08-30 11:24:00,,0833.2,4.99,0.00,30.2,29.1,00.0,38.9,32.0,22.5,0000.0,0016.70,0007.46,0006.20
2022-08-30 11:25:00,,0833.3,5.00,0.00,30.2,29.1,00.0,38.9,32.0,22.5,0000.0,0015.74,0007.52,0006.23
2022-08-30 11:26:00,,0833.2,5.01,0.00,30.2,29.1,00.0,39.0,32.0,22.5,0000.0,0016.70,0007.57,0006.24
2022-08-30 11:27:00,,0833.2,5.01,0.00,30.2,29.1,00.0,39.0,32.1,22.5,0000.0,0017.56,0007.55,0006.23
2022-08-30 11:28:00,,0833.2,4.98,0.00,30.3,29.2,00.0,39.0,32.1,22.5,0000.0,0017.27,0007.58,0006.25
2022-08-30 11:29:00,,0833.2,5.01,0.00,30.3,29.2,00.0,39.0,32.1,22.6,0000.0,0016.99,0007.56,0006.27
2022-08-30 11:30:00,,0833.1,5.01,0.00,30.3,29.2,00.0,39.0,32.1,22.7,0000.0,0016.45,0007.54,0006.30
2022-08-30 11:31:00,,0833.2,5.01,0.00,30.3,29.2,00.0,39.1,32.1,22.6,0000.0,0016.24,0007.57,0006.31
2022-08-30 11:32:00,,0833.2,4.98,0.00,30.3,29.2,00.0,39.1,32.1,22.7,0000.0,0016.46,0007.59,0006.31
2022-08-30 11:33:00,,0833.2,5.01,0.00,30.3,29.2,00.0,39.1,32.2,22.8,0000.0,0016.58,0007.62,0006.31
2022-08-30 11:34:00,,0833.2,5.01,0.00,30.3,29.2,00.0,39.1,32.2,22.8,0000.0,0016.61,0007.62,0006.32
2022-08-30 11:35:00,,0833.2,5.01,0.00,30.4,29.3,00.0,39.1,32.2,22.8,0000.0,0016.68,0007.60,0006.32
2022-08-30 11:36:00,,0833.3,5.00,0.00,30.4,29.3,00.0,39.1,32.2,22.8,0000.0,0016.74,0007.59,0006.32
2022-08-30 11:37:00,,0833.3,4.99,0.00,30.4,29.3,00.0,39.1,32.2,22.8,0000.0,0015.81,0007.58,0006.31
2022-08-30 11:38:00,,0833.3,5.01,0.00,30.4,29.3,00.0,39.1,32.2,22.8,0000.0,0015.37,0007.63,0006.32
2022-08-30 11:39:00,,0833.3,5.01,0.00,30.4,29.3,00.0,39.2,32.2,22.9,0000.0,0015.48,0007.63,0006.32
2022-08-30 11:40:00,,0833.3,4.99,0.00,30.4,29.3,00.0,39.2,32.2,23.0,0000.0,0015.19,0007.61,0006.33
2022-08-30 11:41:00,,0833.3,5.01,0.00,30.4,29.3,00.0,39.2,32.2,23.1,0000.0,0015.57,0007.65,0006.33
2022-08-30 11:42:00,,0833.4,5.01,0.00,30.4,29.0,00.0,39.2,32.2,23.1,0000.0,0015.37,0007.67,0006.35
2022-08-30 11:43:00,,0833.4,5.00,0.00,30.4,27.6,00.0,39.2,32.1,23.1,0000.0,0015.53,0007.68,0006.36
2022-08-30 11:44:00,,0833.3,4.99,0.00,30.4,26.9,00.0,39.1,32.1,23.2,0000.0,0016.58,0007.66,0006.37
2022-08-30 11:45:00,,0833.3,5.01,0.00,30.3,27.0,00.0,39.1,31.9,23.3,0000.0,0016.69,0007.68,0006.38
2022-08-30 11:46:00,,0833.3,4.99,0.00,30.2,27.3,00.0,39.0,31.8,23.5,0000.0,0016.45,0007.61,0006.37
2022-08-30 11:47:00,,0833.2,5.00,0.00,30.1,27.6,00.0,39.0,31.7,23.5,0000.0,0016.84,0007.60,0006.37
2022-08-30 11:48:00,,0833.2,5.01,0.00,30.1,27.9,00.0,39.0,31.8,23.5,0000.0,0016.94,0007.68,0006.37
2022-08-30 11:49:00,,0833.1,5.00,0.00,30.1,28.1,00.0,38.9,31.8,23.5,0000.0,0016.26,0007.63,0006.38
2022-08-30 11:50:00,,0833.2,5.02,0.00,30.1,28.3,00.0,38.9,31.8,23.4,0000.0,0015.94,0007.63,0006.37
2022-08-30 11:51:00,,0833.2,4.99,0.00,30.0,28.4,00.0,38.9,31.8,23.4,0000.0,0017.00,0007.63,0006.36
2022-08-30 11:52:00,,0833.2,5.00,0.00,30.0,28.5,00.0,38.9,31.8,23.4,0000.0,0016.99,0007.58,0006.35
2022-08-30 11:53:00,,0833.2,5.00,0.00,30.0,28.6,00.0,38.9,31.8,23.4,0000.0,0016.38,0007.52,0006.33
2022-08-30 11:54:00,,0833.1,5.01,0.00,30.0,28.6,00.0,38.9,31.8,23.3,0000.0,0016.05,0007.52,0006.32
2022-08-30 11:55:00,,0833.2,5.00,0.00,30.0,28.7,00.0,38.9,31.8,23.3,0000.0,0016.02,0007.48,0006.30
2022-08-30 11:56:00,,0833.2,5.00,0.00,30.0,28.7,00.0,38.9,31.8,23.4,0000.0,0016.37,0007.46,0006.28
2022-08-30 11:57:00,,0833.2,5.00,0.00,30.0,28.8,00.0,38.9,31.9,23.4,0001.8,0017.27,0007.52,0006.27
2022-08-30 11:58:00,,0833.2,5.00,0.00,30.1,28.8,00.0,38.9,31.9,23.4,0002.1,0016.67,0007.47,0006.26
2022-08-30 11:59:00,,0833.1,5.00,0.00,30.1,28.8,00.0,38.9,31.9,23.3,0001.3,0016.29,0007.42,0006.25
